Location: Asheville, NC
(35.6000°N, 82.5500°W)
Time: 20:33:36
(UTC-04:00)

Vanguard 2 - Pass Details

Date: 14 March 2018
Orbit: 553 x 2939 km, 32.9° (Epoch: 20 June)

Event Time Altitude Azimuth Distance (km) Brightness Sun altitude
Rises 12:13:14 0° 246° (WSW) 5,525 11.8 47.0°
Reaches altitude 10° 12:16:25 10° 244° (WSW) 4,784 11.6 47.4°
Maximum altitude 12:31:10 72° 163° (SSE) 2,914 12.0 48.8°
Drops below altitude 10° 12:49:04 10° 84° (E) 5,666 12.2 50.3°
Sets 12:53:14 0° 82° (E) 6,550 12.4 50.5°
